Hourly Data Report for October 01, 2017

All times are specified in Local Standard Time (LST). Add 1 hour to adjust for Daylight Saving Time where and when it is observed.

QIKIQTARJUAQ A
NUNAVUT

67°32'48.000" N
64°01'54.000" W
5.50 m
2400577
YVM

Related Data

No related data is available for this station

Download Data

Hourly Data (October 2017)
Hourly Data Report for October 1, 2017
Temp Definition
°C
Dew Point Temp Definition
°C
Rel Hum Definition
%
Wind Dir Definition
10's deg

Wind Spd Definition
km/h
Visibility Definition
km
Stn Press Definition
kPa
Hmdx Definition


Wind Chill Definition


Weather Definition


TIME
00:00 Legend Double Dagger -0.7 -1.7 93 11 8 4.8 100.25   -4 Snow
01:00 Legend Double Dagger 0.7 -1.4 86 35 26 16.1 100.31     Rain,Snow
02:00 Legend Double Dagger 0.8 -0.8 89 35 30 16.1 100.38     LegendNANA
03:00 Legend Double Dagger 0.5 -0.2 95 36 32 16.1 100.48     Rain
04:00 Legend Double Dagger 0.7 -0.3 93 1 26 16.1 100.55     Rain
05:00 Legend Double Dagger 1.1 -0.2 91 36 22 16.1 100.61     Rain
06:00 Legend Double Dagger 1.0 -0.2 92 35 30 16.1 100.66     LegendNANA
07:00 Legend Double Dagger 0.5 0.1 97 35 22 6.4 100.74     Rain,Fog
08:00 Legend Double Dagger 0.6 0.2 97 36 22 11.3 100.79     Rain
09:00 Legend Double Dagger 0.9 -0.3 92 36 18 16.1 100.82     LegendNANA
10:00 Legend Double Dagger 0.9 -0.3 92 36 17 16.1 100.84     LegendNANA
11:00 Legend Double Dagger 1.1 -0.4 90 3 15 16.1 100.85     LegendNANA
12:00 Legend Double Dagger 0.8 -1.3 86 7 15 16.1 100.85     LegendNANA
13:00 Legend Double Dagger 1.0 -0.9 87 21 8 16.1 100.86     LegendNANA
14:00 Legend Double Dagger 0.8 -1.1 87 LegendMM 4 16.1 100.88     LegendNANA
15:00 Legend Double Dagger 0.3 -1.3 89 LegendMM 4 16.1 100.90     LegendNANA
16:00 Legend Double Dagger 0.5 -1.6 86   0 16.1 100.90     LegendNANA
17:00 Legend Double Dagger 0.3 -1.6 87   0 16.1 100.89     LegendNANA
18:00 Legend Double Dagger 1.0 -1.4 84 21 22 16.1 100.91     LegendNANA
19:00 Legend Double Dagger 0.3 -1.0 91 24 8 16.1 100.98     LegendNANA
20:00 Legend Double Dagger 0.7 -1.7 84 6 8 16.1 101.06     LegendNANA
21:00 Legend Double Dagger 1.0 -2.1 80 33 13 16.1 101.09     LegendNANA
22:00 Legend Double Dagger 0.9 -2.7 77 36 9 16.1 101.14     LegendNANA
23:00 Legend Double Dagger 0.8 -2.6 78 34 17 16.1 101.15     LegendNANA

Notes on Data Quality.

Legend

  • E = Estimated
  • M = Missing
  • NA = Not Available
  • ‡ = Partner data that is not subject to review by the National Climate Archives
Date modified: